Le nostre stazioni meteo in Italia

Pubblicità
Il mio iltempo24.it
Trieste, Italia (16110): Temperatura & dewpoint: 13.05.2019 21:00:00 - 19.05.2019 21:00:00 (CEST)Trieste, Italia (16110): velocità del vento: 13.05.2019 21:00:00 - 19.05.2019 21:00:00 (CEST)Trieste, Italia (16110): direzione del vento: 13.05.2019 21:00:00 - 19.05.2019 21:00:00 (CEST)Trieste, Italia (16110): reduced air pressure: 13.05.2019 21:00:00 - 19.05.2019 21:00:00 (CEST)Trieste, Italia (16110): visibility: 13.05.2019 21:00:00 - 19.05.2019 21:00:00 (CEST)Trieste, Italia (16110): ore di luce: 13.05.2019 21:00:00 - 19.05.2019 21:00:00 (CEST)
Data & Tempo tt [°C] td [°C] ff [km/h] ff [kn] dd ppp [hPa] vv [km] sd [min]
19.05.2019 21:00:00 - - - - - - - -
19.05.2019 20:00:00 14,0 13,4 5 3 ESE 1004,6 10 0
19.05.2019 19:00:00 14,4 13,4 5 3 ESE 1004,5 10 0
19.05.2019 18:00:00 15,0 14,0 2 1 NE 1004,8 10 0
19.05.2019 17:00:00 14,8 14,2 5 3 N 1005,0 10 0
19.05.2019 16:00:00 14,4 13,1 2 1 ONO 1005,0 10 0
19.05.2019 15:00:00 15,4 14,8 13 7 O 1004,4 15 0
19.05.2019 14:00:00 16,4 15,8 2 1 ENE 1004,9 20 0
19.05.2019 13:00:00 15,6 14,6 0 0 N 1005,2 10 0
19.05.2019 12:00:00 15,6 14,8 0 0 N 1005,2 20 0
19.05.2019 11:00:00 15,0 13,9 0 0 N 1005,4 15 0
19.05.2019 10:00:00 15,0 12,5 5 3 E 1005,4 10 0
19.05.2019 09:00:00 15,0 13,4 4 2 ESE 1005,4 10 0
19.05.2019 08:00:00 14,4 13,6 2 1 E 1005,4 10 0
19.05.2019 07:00:00 - - - - - - - -
19.05.2019 06:00:00 - - - - - - - -
19.05.2019 05:00:00 - - - - - - - -
19.05.2019 04:00:00 - - - - - - - -
19.05.2019 03:00:00 - - - - - - - -
19.05.2019 02:00:00 - - - - - - - -
19.05.2019 01:00:00 - - - - - - - -
19.05.2019 00:00:00 - - - - - - - -
18.05.2019 23:00:00 - - - - - - - -
18.05.2019 22:00:00 - - - - - - - -
18.05.2019 21:00:00 - - - - - - - -
18.05.2019 20:00:00 15,4 13,8 5 3 E 1007,3 4,0 0
18.05.2019 19:00:00 15,6 12,9 13 7 ENE 1007,2 10 0
18.05.2019 18:00:00 15,2 13,7 11 6 ENE 1007,3 4,0 0
18.05.2019 17:00:00 15,4 13,4 2 1 NNE 1007,4 4,0 0
18.05.2019 16:00:00 15,6 14,3 74 40 E 1007,2 6 0
18.05.2019 15:00:00 18,0 13,5 8 4 NNE 1007,3 10 0
18.05.2019 14:00:00 17,8 13,5 9 5 NNE 1007,3 10 0
18.05.2019 13:00:00 18,0 12,2 15 8 NE 1007,3 10 6
18.05.2019 12:00:00 18,6 11,4 13 7 NNE 1007,3 20 6
18.05.2019 11:00:00 18,0 11,3 15 8 NNE 1007,3 20 0
18.05.2019 10:00:00 16,0 11,4 13 7 NNE 1007,9 20 0
18.05.2019 09:00:00 15,2 11,0 15 8 NE 1007,8 20 -
18.05.2019 08:00:00 15,4 9,5 15 8 ENE 1012,6 20 0
18.05.2019 07:00:00 - - - - - - - -
18.05.2019 06:00:00 - - - - - - - -
18.05.2019 05:00:00 - - - - - - - -
18.05.2019 04:00:00 - - - - - - - -
18.05.2019 03:00:00 - - - - - - - -
18.05.2019 02:00:00 - - - - - - - -
18.05.2019 01:00:00 - - - - - - - -
18.05.2019 00:00:00 - - - - - - - -
17.05.2019 23:00:00 - - - - - - - -
17.05.2019 22:00:00 - - - - - - - -
17.05.2019 21:00:00 - - - - - - - -
17.05.2019 20:00:00 17,0 12,7 0 0 N 1009,1 20 30
17.05.2019 19:00:00 16,8 12,1 0 0 N 1009,3 20 54
17.05.2019 18:00:00 17,0 11,7 2 1 O 1009,9 20 60
17.05.2019 17:00:00 16,8 11,5 2 1 ONO 1010,2 20 60
17.05.2019 16:00:00 16,0 9,7 2 1 NNO 1010,3 20 60
17.05.2019 15:00:00 16,4 10,9 2 1 ONO 1010,7 20 48
17.05.2019 14:00:00 17,0 11,5 4 2 O 1010,7 20 54
17.05.2019 13:00:00 17,0 11,5 8 4 O 1010,7 20 60
17.05.2019 12:00:00 16,0 11,6 4 2 ONO 1010,7 20 60
17.05.2019 11:00:00 15,8 10,1 2 1 NO 1010,6 20 60
17.05.2019 10:00:00 17,2 9,6 2 1 NNO 1010,9 20 60
17.05.2019 09:00:00 16,4 7,6 5 3 NE 1011,0 20 60
17.05.2019 08:00:00 14,0 7,3 15 8 NE 1010,8 20 54
17.05.2019 07:00:00 - - - - - - - -
17.05.2019 06:00:00 - - - - - - - -
17.05.2019 05:00:00 - - - - - - - -
17.05.2019 04:00:00 - - - - - - - -
17.05.2019 03:00:00 - - - - - - - -
17.05.2019 02:00:00 - - - - - - - -
17.05.2019 01:00:00 - - - - - - - -
17.05.2019 00:00:00 - - - - - - - -
16.05.2019 23:00:00 - - - - - - - -
16.05.2019 22:00:00 - - - - - - - -
16.05.2019 21:00:00 - - - - - - - -
16.05.2019 20:00:00 15,8 11,2 0 0 N 1011,0 20 30
16.05.2019 19:00:00 16,2 11,0 2 1 OSO 1010,8 20 18
16.05.2019 18:00:00 17,6 12,1 5 3 OSO 1011,3 20 48
16.05.2019 17:00:00 17,4 11,4 4 2 OSO 1011,4 20 18
16.05.2019 16:00:00 17,6 12,3 4 2 SE 1012,0 20 12
16.05.2019 15:00:00 19,0 6,8 4 2 OSO 1012,0 20 42
16.05.2019 14:00:00 18,8 6,6 9 5 NE 1012,2 20 48
16.05.2019 13:00:00 18,4 6,6 13 7 NNE 1012,3 20 60
16.05.2019 12:00:00 17,6 5,9 13 7 NNE 1012,9 20 60
16.05.2019 11:00:00 17,2 6,7 11 6 NE 1013,2 20 60
16.05.2019 10:00:00 16,4 6,0 13 7 NNE 1012,9 20 60
16.05.2019 09:00:00 14,4 7,9 11 6 ESE 1012,9 20 18
16.05.2019 08:00:00 12,6 5,5 4 2 N 1012,7 20 0
16.05.2019 07:00:00 - - - - - - - -
16.05.2019 06:00:00 - - - - - - - -
16.05.2019 05:00:00 - - - - - - - -
16.05.2019 04:00:00 - - - - - - - -
16.05.2019 03:00:00 - - - - - - - -
16.05.2019 02:00:00 - - - - - - - -
16.05.2019 01:00:00 - - - - - - - -
16.05.2019 00:00:00 - - - - - - - -
15.05.2019 23:00:00 - - - - - - - -
15.05.2019 22:00:00 - - - - - - - -
15.05.2019 21:00:00 - - - - - - - -
15.05.2019 20:00:00 13,0 6,4 8 4 NE 1013,5 20 0
15.05.2019 19:00:00 14,0 6,4 8 4 NE 1013,6 20 0
15.05.2019 18:00:00 14,2 5,8 9 5 ENE 1013,6 20 0
15.05.2019 17:00:00 14,8 5,9 11 6 ENE 1013,6 20 12
15.05.2019 16:00:00 15,0 5,8 11 6 NE 1013,7 20 18
15.05.2019 15:00:00 14,2 5,8 8 4 E 1013,7 20 0
15.05.2019 14:00:00 14,0 5,6 11 6 NE 1013,8 20 30
15.05.2019 13:00:00 12,6 5,1 9 5 NE 1014,2 20 12
15.05.2019 12:00:00 12,4 5,3 9 5 ESE 1014,3 20 0
15.05.2019 11:00:00 12,2 4,9 5 3 E 1013,5 20 6
15.05.2019 10:00:00 11,8 4,5 8 4 NNE 1013,7 20 12
15.05.2019 09:00:00 12,0 5,0 8 4 NE 1013,4 20 48
15.05.2019 08:00:00 10,4 4,8 2 1 SSE 1013,5 20 48
15.05.2019 07:00:00 - - - - - - - -
15.05.2019 06:00:00 - - - - - - - -
15.05.2019 05:00:00 - - - - - - - -
15.05.2019 04:00:00 - - - - - - - -
15.05.2019 03:00:00 - - - - - - - -
15.05.2019 02:00:00 - - - - - - - -
15.05.2019 01:00:00 - - - - - - - -
15.05.2019 00:00:00 - - - - - - - -
14.05.2019 23:00:00 - - - - - - - -
14.05.2019 22:00:00 - - - - - - - -
14.05.2019 21:00:00 - - - - - - - -
14.05.2019 20:00:00 10,4 1,8 18 10 NE 1017,6 20 12
14.05.2019 19:00:00 10,8 1,6 28 15 NE 1017,5 20 60
14.05.2019 18:00:00 11,2 1,7 26 14 NE 1017,5 20 60
14.05.2019 17:00:00 12,0 1,3 29 16 NE 1018,2 20 60
14.05.2019 16:00:00 12,0 0,8 24 13 NE 1018,4 20 24
14.05.2019 15:00:00 12,4 1,4 16 9 N 1018,5 20 24
14.05.2019 14:00:00 11,4 0,5 26 14 NE 1018,8 20 18
14.05.2019 13:00:00 12,0 0,4 28 15 NE 1018,8 20 0
14.05.2019 12:00:00 12,6 -1,0 31 17 NE 1019,0 20 0
14.05.2019 11:00:00 13,0 -0,3 29 16 NNE 1018,4 20 0
14.05.2019 10:00:00 13,0 0,4 29 16 NE 1018,0 20 0
14.05.2019 09:00:00 13,0 1,1 34 18 NE 1017,7 20 0
14.05.2019 08:00:00 12,4 1,1 37 20 NE 1017,5 20 0
14.05.2019 07:00:00 - - - - - - - -
14.05.2019 06:00:00 - - - - - - - -
14.05.2019 05:00:00 - - - - - - - -
14.05.2019 04:00:00 - - - - - - - -
14.05.2019 03:00:00 - - - - - - - -
14.05.2019 02:00:00 - - - - - - - -
14.05.2019 01:00:00 - - - - - - - -
14.05.2019 00:00:00 - - - - - - - -
13.05.2019 23:00:00 - - - - - - - -
13.05.2019 22:00:00 - - - - - - - -
13.05.2019 21:00:00 - - - - - - - -

tt = Temperatura
td = dewpoint
ff = velocità del vento
dd = direzione del vento
ppp = reduced air pressure
vv = visibility
sd = ore di luce

Stazioni seguenti

WeatherPro
AMSI
MeteoEarth